Skip Page Navigation
NASA JPL Caltech
NASA Logo - Jet Propulsion Laboratory + View the NASA Portal
+ Center for Near-Earth Object Studies
JPL Home Earth Solar System Stars & Galaxies Technology
JPL Solar System Dynamics
BODIES ORBITS EPHEMERIDES TOOLS PHYSICAL DATA DISCOVERY FAQ SITE MAP
IMPORTANT: The SSD Announcement email list is now available. Major changes are coming in the near future, including possible hostname and/or URL changes. To be notified of such changes, subscribe to this email list.

Please visit this page for more details.


JPL Small-Body Database Browser
Search: [ help ]  
487282 (2014 QQ10)
Classification: Main-belt Asteroid          SPK-ID: 2487282
Ephemeris | Orbit Diagram | Orbital Elements | Mission Design | Physical Parameters | Discovery Circumstances ]

[ show orbit diagram ]
Orbital Elements at Epoch 2459000.5 (2020-May-31.0) TDB
Reference: JPL 10 (heliocentric ecliptic J2000)
 Element Value Uncertainty (1-sigma)   Units 
e .1267523759369611 8.1836e-08  
a 2.628969328583129 8.4055e-08 au
q 2.29574121991982 1.9734e-07 au
i 9.96576372172191 6.8537e-06 deg
node 259.5051681994096 4.4973e-05 deg
peri 18.25106182541555 6.2985e-05 deg
M 164.1295393473409 6.1013e-05 deg
tp 2458290.659203678012
(2018-Jun-21.15920368)
0.00023503 TDB
period 1556.957313668693
4.26
7.467e-05
2.044e-07
d
yr
n .2312202119091654 1.1089e-08 deg/d
Q 2.962197437246438 9.4709e-08 au
  Orbit Determination Parameters
   # obs. used (total)      72  
   data-arc span      2426 days (6.64 yr)  
   first obs. used      2013-04-07  
   last obs. used      2019-11-28  
   planetary ephem.      DE431  
   SB-pert. ephem.      SB431-N16  
   condition code      0  
   norm. resid. RMS      .63202  
   source      ORB  
   producer      Otto Matic  
   solution date      2019-Dec-14 23:58:52  

Additional Information
 Earth MOID = 1.28163 au 
 Jupiter MOID = 2.15059 au 
 T_jup = 3.368 
[ show covariance matrix ]

Ephemeris | Orbit Diagram | Orbital Elements | Mission Design | Physical Parameters | Discovery Circumstances ]

Physical Parameter Table
Parameter Symbol Value Units Sigma Reference Notes
absolute magnitude H 17.3   n/a MPO503656  

487282 (2014 QQ10)          Discovered 2014-Jun-03 by Pan-STARRS 1 at Haleakala
Reference: Last Updated: 2017-03-14
Ephemeris | Orbit Diagram | Orbital Elements | Mission Design | Physical Parameters | Discovery Circumstances ]
ABOUT SSD CREDITS/AWARDS PRIVACY/COPYRIGHT GLOSSARY LINKS
FirstGov 2020-Jun-04 20:47 UT
(server date/time)  
NASA Home Page
Site Manager:   Ryan S. Park
Webmaster  Alan B. Chamberlin